• In India
  • List of Countries
  • For 7 days
  • Water Temperature
  • Satellite Maps
  • Weather Map
  • Weather Widgets
  • user-avatar
    Login

    Hourly Weather Gasiorow

    Today, 21 February, Thursday

    Time Temperature Precipitation Wind Pressure Humidity
    00:00 +5°C° 0 mm 3 mps 759 mmHg 79%
    01:00 +5°C° 0 mm 3 mps 759 mmHg 79%
    02:00 +4°C° 0 mm 3 mps 759 mmHg 81%
    03:00 +4°C° 0 mm 3 mps 759 mmHg 83%
    04:00 +3°C° 0 mm 3 mps 759 mmHg 84%
    05:00 +3°C° 0 mm 3 mps 759 mmHg 85%
    06:00 +3°C° 0 mm 3 mps 759 mmHg 85%
    07:00 +3°C° 0 mm 3 mps 759 mmHg 85%
    08:00 +4°C° 0 mm 4 mps 759 mmHg 81%
    09:00 +5°C° 0 mm 4 mps 759 mmHg 76%
    10:00 +6°C° 0 mm 5 mps 759 mmHg 71%
    11:00 +7°C° 0.1 mm 5 mps 759 mmHg 70%
    12:00 +7°C° 0.1 mm 5 mps 758 mmHg 70%
    13:00 +7°C° 0.1 mm 5 mps 758 mmHg 69%
    14:00 +7°C° 0.4 mm 4 mps 758 mmHg 71%
    15:00 +7°C° 0.4 mm 4 mps 758 mmHg 72%
    16:00 +7°C° 0.4 mm 3 mps 757 mmHg 74%
    17:00 +6°C° 0 mm 4 mps 757 mmHg 75%
    18:00 +6°C° 0 mm 4 mps 757 mmHg 76%
    19:00 +6°C° 0 mm 4 mps 757 mmHg 76%
    20:00 +6°C° 0 mm 5 mps 757 mmHg 80%
    21:00 +6°C° 0 mm 5 mps 757 mmHg 83%
    22:00 +7°C° 0 mm 6 mps 757 mmHg 86%
    23:00 +5°C° 0.4 mm 6 mps 757 mmHg 88%

    Tomorrow, 22 February, Friday

    Time Temperature Precipitation Wind Pressure Humidity
    00:00 +5°C° 0.4 mm 6 mps 757 mmHg 89%
    01:00 +5°C° 0.4 mm 6 mps 756 mmHg 91%
    02:00 +5°C° 0.4 mm 6 mps 757 mmHg 91%
    03:00 +5°C° 0.4 mm 6 mps 757 mmHg 91%
    04:00 +5°C° 0.4 mm 6 mps 757 mmHg 91%
    05:00 +4°C° 0.1 mm 6 mps 758 mmHg 88%
    06:00 +3°C° 0.1 mm 7 mps 759 mmHg 85%
    07:00 +2°C° 0.1 mm 7 mps 760 mmHg 82%
    08:00 +2°C° 0 mm 7 mps 761 mmHg 79%
    09:00 +1°C° 0 mm 6 mps 762 mmHg 75%
    10:00 0°C° 0 mm 5 mps 764 mmHg 72%
    11:00 +1°C° 0 mm 5 mps 765 mmHg 65%
    12:00 +1°C° 0 mm 5 mps 765 mmHg 59%
    13:00 +3°C° 0 mm 4 mps 766 mmHg 52%
    14:00 +1°C° 0 mm 4 mps 766 mmHg 51%
    15:00 +1°C° 0 mm 4 mps 767 mmHg 50%
    16:00 +1°C° 0 mm 4 mps 767 mmHg 48%
    17:00 +1°C° 0 mm 3 mps 768 mmHg 53%
    18:00 0°C° 0 mm 3 mps 769 mmHg 57%
    19:00 -1°C° 0 mm 2 mps 769 mmHg 61%
    20:00 -1°C° 0 mm 2 mps 770 mmHg 61%
    21:00 -2°C° 0 mm 2 mps 770 mmHg 61%
    22:00 -2°C° 0 mm 2 mps 771 mmHg 60%
    23:00 -2°C° 0 mm 2 mps 771 mmHg 59%

    Day after tomorrow, 23 February, Saturday

    Time Temperature Precipitation Wind Pressure Humidity
    00:00 -2°C° 0 mm 2 mps 771 mmHg 58%
    01:00 -2°C° 0 mm 2 mps 771 mmHg 56%
    02:00 0°C° 0 mm 1 mps 771 mmHg 55%
    03:00 -1°C° 0 mm 1 mps 771 mmHg 54%
    04:00 -1°C° 0 mm 1 mps 771 mmHg 53%
    05:00 -1°C° 0 mm 1 mps 771 mmHg 53%
    06:00 -1°C° 0 mm 1 mps 771 mmHg 52%
    07:00 -1°C° 0 mm 1 mps 772 mmHg 52%
    08:00 0°C° 0 mm 1 mps 772 mmHg 47%
    09:00 -2°C° 0 mm 2 mps 772 mmHg 41%
    10:00 -1°C° 0 mm 2 mps 772 mmHg 36%
    11:00 +1°C° 0 mm 2 mps 772 mmHg 32%
    12:00 +2°C° 0 mm 2 mps 772 mmHg 29%
    13:00 +2°C° 0 mm 2 mps 772 mmHg 26%
    14:00 +3°C° 0 mm 1 mps 771 mmHg 26%
    15:00 +3°C° 0 mm 1 mps 771 mmHg 27%
    16:00 +4°C° 0 mm 1 mps 771 mmHg 27%
    17:00 +3°C° 0 mm 1 mps 771 mmHg 30%
    18:00 +2°C° 0 mm 1 mps 771 mmHg 33%
    19:00 +1°C° 0 mm 1 mps 771 mmHg 36%
    20:00 +1°C° 0 mm 1 mps 771 mmHg 37%
    21:00 0°C° 0 mm 1 mps 771 mmHg 37%
    22:00 -2°C° 0 mm 2 mps 771 mmHg 38%
    23:00 -2°C° 0 mm 2 mps 771 mmHg 38%

    24 February, Sunday

    Time Temperature Precipitation Wind Pressure Humidity
    00:00 -2°C° 0 mm 2 mps 770 mmHg 38%
    01:00 -2°C° 0 mm 2 mps 770 mmHg 38%
    02:00 0°C° 0 mm 1 mps 770 mmHg 37%
    03:00 0°C° 0 mm 1 mps 770 mmHg 36%
    04:00 0°C° 0 mm 1 mps 769 mmHg 35%
    05:00 0°C° 0 mm 1 mps 769 mmHg 34%
    06:00 0°C° 0 mm 1 mps 769 mmHg 33%
    07:00 -1°C° 0 mm 0 mps 769 mmHg 32%
    08:00 +2°C° 0 mm 1 mps 769 mmHg 30%
    09:00 +3°C° 0 mm 1 mps 769 mmHg 28%
    10:00 +5°C° 0 mm 1 mps 769 mmHg 26%
    11:00 +5°C° 0 mm 2 mps 768 mmHg 28%
    12:00 +6°C° 0 mm 2 mps 768 mmHg 30%
    13:00 +7°C° 0 mm 3 mps 768 mmHg 32%
    14:00 +7°C° 0 mm 3 mps 767 mmHg 38%
    15:00 +7°C° 0 mm 2 mps 767 mmHg 44%
    16:00 +6°C° 0 mm 2 mps 766 mmHg 50%
    17:00 +4°C° 0 mm 3 mps 766 mmHg 55%
    18:00 +3°C° 0 mm 3 mps 766 mmHg 59%
    19:00 +2°C° 0 mm 3 mps 766 mmHg 64%
    20:00 +2°C° 0 mm 3 mps 766 mmHg 66%
    21:00 +2°C° 0 mm 3 mps 766 mmHg 67%
    22:00 +1°C° 0 mm 4 mps 766 mmHg 69%
    23:00 +1°C° 0 mm 4 mps 766 mmHg 71%

    25 February, Monday

    Time Temperature Precipitation Wind Pressure Humidity
    00:00 +1°C° 0 mm 4 mps 766 mmHg 74%
    01:00 +1°C° 0 mm 4 mps 766 mmHg 76%
    02:00 +1°C° 0 mm 4 mps 766 mmHg 80%
    03:00 +1°C° 0 mm 4 mps 766 mmHg 84%
    04:00 +1°C° 0 mm 4 mps 766 mmHg 88%
    05:00 +1°C° 0.1 mm 4 mps 766 mmHg 91%
    06:00 +2°C° 0.1 mm 3 mps 767 mmHg 93%
    07:00 +2°C° 0.1 mm 3 mps 767 mmHg 95%
    08:00 +3°C° 0 mm 3 mps 768 mmHg 90%
    09:00 +4°C° 0 mm 3 mps 768 mmHg 86%
    10:00 +4°C° 0 mm 4 mps 769 mmHg 81%
    11:00 +5°C° 0 mm 4 mps 769 mmHg 73%
    12:00 +7°C° 0 mm 4 mps 769 mmHg 65%
    13:00 +8°C° 0 mm 4 mps 769 mmHg 57%
    14:00 +9°C° 0 mm 3 mps 768 mmHg 56%
    15:00 +9°C° 0 mm 3 mps 768 mmHg 55%
    16:00 +9°C° 0 mm 3 mps 768 mmHg 53%
    17:00 +7°C° 0 mm 3 mps 768 mmHg 57%
    18:00 +6°C° 0 mm 2 mps 768 mmHg 61%
    19:00 +5°C° 0 mm 2 mps 768 mmHg 65%
    20:00 +5°C° 0 mm 2 mps 768 mmHg 67%
    21:00 +4°C° 0 mm 2 mps 768 mmHg 69%
    22:00 +4°C° 0 mm 2 mps 768 mmHg 70%
    23:00 +3°C° 0 mm 2 mps 768 mmHg 72%

    26 February, Tuesday

    Time Temperature Precipitation Wind Pressure Humidity
    00:00 +3°C° 0 mm 2 mps 767 mmHg 74%
    01:00 +3°C° 0 mm 2 mps 767 mmHg 77%
    02:00 +1°C° 0 mm 3 mps 766 mmHg 79%
    03:00 +1°C° 0 mm 3 mps 765 mmHg 81%
    04:00 +1°C° 0 mm 3 mps 765 mmHg 84%
    05:00 +1°C° 0 mm 3 mps 765 mmHg 84%
    06:00 +1°C° 0 mm 3 mps 764 mmHg 84%
    07:00 +1°C° 0 mm 3 mps 764 mmHg 85%
    08:00 +1°C° 0 mm 4 mps 764 mmHg 79%
    09:00 +3°C° 0 mm 5 mps 763 mmHg 73%
    10:00 +5°C° 0 mm 5 mps 763 mmHg 67%
    11:00 +7°C° 0 mm 6 mps 762 mmHg 63%
    12:00 +8°C° 0 mm 6 mps 762 mmHg 60%
    13:00 +9°C° 0 mm 6 mps 761 mmHg 56%
    14:00 +10°C° 0 mm 6 mps 761 mmHg 56%
    15:00 +10°C° 0 mm 7 mps 760 mmHg 56%
    16:00 +10°C° 0 mm 7 mps 760 mmHg 57%
    17:00 +9°C° 0 mm 6 mps 760 mmHg 61%
    18:00 +8°C° 0 mm 6 mps 760 mmHg 66%
    19:00 +7°C° 0 mm 6 mps 760 mmHg 70%
    20:00 +7°C° 0 mm 5 mps 760 mmHg 73%
    21:00 +6°C° 0 mm 5 mps 760 mmHg 75%
    22:00 +6°C° 0 mm 5 mps 760 mmHg 78%
    23:00 +6°C° 0 mm 5 mps 760 mmHg 80%
    Show more